Home > Weather > Kowloon > Past weeks

Flag for Hong Kong Past Weather in Kowloon, Hong Kong — Yesterday and Last 2 Weeks

Now
86 °F

Passing clouds.


Feels Like: 95 °F
Forecast: 84 / 92 °F
Wind: 10 mph from Southwest

Location: National Airport

Current Time: Jul 28, 2016 at 8:28:42 PM

Latest Report: Jul 28, 2016 at 8:00 PM


Visibility: N/A

Pressure: 29.80 "Hg

Humidity: 70%

Dew Point: 75 °F

Location of KowloonLocation

Past Weather in Kowloon — Graph

°F

Kowloon Temperature Yesterday

Maximum temperature yesterday: 93 °F (at 11:30 AM)
Minimum temperature yesterday: 84 °F (at 3:30 AM)
Average temperature yesterday: 88 °F

High & Low Weather Summary for the Past Weeks

 TemperatureHumidityPressure
High95 °F (Jul 22, 4:30 PM)89% (Jul 14, 4:30 AM)29.89 "Hg (Jul 14, 4:30 AM)
Low82 °F (Jul 14, 4:30 AM)44% (Jul 24, 2:00 PM)29.65 "Hg (Jul 13, 7:00 PM)
Average88 °F70%29.78 "Hg
* Reported Jul 13 7:00 PM — Jul 28 7:00 PM, Kowloon, Weather by CustomWeather, © 2016

Note: Actual official high and low records may vary slightly from our data, if they occured in-between our weather recording intervals... More about our weather records

Advertising

Kowloon Weather History for the Previous 24 Hours

Scroll right to see more
 ConditionsComfort  
Time TempWeatherWind HumidityBarometerVisibility
7:00 PM
Thu, Jul 28
88 °FPassing clouds.10 mph59%29.80 "HgN/A
6:30 PM90 °FPassing clouds.10 mph59%29.77 "HgN/A
6:00 PM91 °FPassing clouds.12 mph56%29.77 "HgN/A
5:30 PM93 °FPassing clouds.12 mph49%29.77 "HgN/A
5:00 PM93 °FPassing clouds.13 mph49%29.77 "HgN/A
4:30 PM95 °FPassing clouds.13 mph47%29.77 "HgN/A
4:00 PM95 °FPassing clouds.13 mph50%29.77 "HgN/A
3:30 PM95 °FPassing clouds.10 mph53%29.77 "HgN/A
3:00 PM95 °FPassing clouds.10 mph53%29.80 "HgN/A
2:30 PM93 °FPassing clouds.13 mph56%29.80 "HgN/A
2:00 PM95 °FPassing clouds.12 mph53%29.80 "HgN/A
1:30 PM93 °FPassing clouds.12 mph53%29.80 "HgN/A
1:00 PM93 °FPassing clouds.14 mph56%29.83 "HgN/A
12:30 PM91 °FPassing clouds.13 mph59%29.83 "HgN/A
12:00 PM93 °FPassing clouds.13 mph56%29.83 "HgN/A
11:30 AM91 °FPassing clouds.13 mph59%29.83 "HgN/A
11:00 AM90 °FPassing clouds.12 mph63%29.83 "HgN/A
10:30 AM91 °FPassing clouds.10 mph63%29.83 "HgN/A
10:00 AM88 °FPassing clouds.9 mph66%29.83 "HgN/A
9:30 AM88 °FPassing clouds.5 mph75%29.83 "HgN/A
9:00 AM88 °FPassing clouds.3 mph70%29.83 "HgN/A
8:30 AM86 °FPassing clouds.5 mph75%29.83 "HgN/A
8:00 AM86 °FPassing clouds.3 mph75%29.83 "HgN/A
7:30 AM86 °FPassing clouds.5 mph75%29.83 "HgN/A
7:00 AM84 °FPassing clouds.2 mph79%29.80 "HgN/A
6:30 AM82 °FPassing clouds.3 mph79%29.80 "HgN/A
6:00 AM84 °FPassing clouds.5 mph79%29.77 "HgN/A
5:30 AM84 °FPassing clouds.5 mph79%29.77 "HgN/A
5:00 AM84 °FPassing clouds.5 mph79%29.77 "HgN/A
4:30 AM84 °FPassing clouds.2 mph79%29.80 "HgN/A
4:00 AM84 °FPassing clouds.3 mph79%29.80 "HgN/A
3:30 AM84 °FPassing clouds.5 mph79%29.80 "HgN/A
3:00 AM84 °FPassing clouds.7 mph79%29.80 "HgN/A
2:30 AM86 °FPassing clouds.2 mph75%29.80 "HgN/A
2:00 AM86 °FPassing clouds.2 mph70%29.80 "HgN/A
1:30 AM86 °FPassing clouds.6 mph70%29.80 "HgN/A
1:00 AM86 °FPassing clouds.3 mph70%29.80 "HgN/A
12:30 AM86 °FPassing clouds.6 mph75%29.83 "HgN/A
12:00 AM86 °FPassing clouds.5 mph70%29.83 "HgN/A
11:30 PM
Wed, Jul 27
86 °FPassing clouds.5 mph70%29.83 "HgN/A
11:00 PM86 °FPassing clouds.7 mph66%29.83 "HgN/A
10:30 PM88 °FPassing clouds.8 mph62%29.83 "HgN/A
10:00 PM86 °FPassing clouds.7 mph66%29.83 "HgN/A
9:30 PM86 °FPassing clouds.5 mph70%29.83 "HgN/A
9:00 PM86 °FPassing clouds.3 mph70%29.83 "HgN/A
8:30 PM86 °FPassing clouds.12 mph66%29.83 "HgN/A
8:00 PM88 °FPassing clouds.7 mph70%29.83 "HgN/A
Weather by CustomWeather, © 2016

See weather overviewHow to use our weather pages